EXPRESS-AMU1

Last updated on Fri Dec 19 2025 00:02:51 GMT+0000 (Coordinated Universal Time)

1 41191U 15082A 25352.56114799 .00000181 00000+0 00000+0 0 9999 2 41191 0.0126 310.3439 0002463 309.9698 65.2474 1.00273575 36455
UTC large
Height (km)
Speed (km/s)
/
Latitude / Longitude
Inclination (degrees)
Orbital Period (minutes)
Azimuth
Elevation
Range (km)
Doppler Factor

Next 0 passes for location: London (51.5072 / 0.1276)

Sorry there are no passes over London.